Albany, GA

11:49 PM EDT on March 22, 2017 (GMT -0400)
Southwest Georgia Regional

Weather History for KABY - December, 2013

Change the Weather History Date:

Thursday, December 12, 2013

  Actual Average Record
Temperature  
Mean Temperature 47 °F 51 °F  
Max Temperature 60 °F 63 °F 82 °F (2007)
Min Temperature 33 °F 40 °F 18 °F (1957)
Degree Days  
Heating Degree Days 18 14  
Month to date heating degree days 65 153  
Since 1 July heating degree days 362 423  
Cooling Degree Days 0 0  
Month to date cooling degree days 25 0  
Year to date cooling degree days 2433 2533  
Moisture  
Dew Point 29 °F    
Average Humidity 60    
Maximum Humidity 100    
Minimum Humidity 20    
Precipitation  
Precipitation 0.00 in 0.14 in 0.41 in (2012)
Month to date precipitation 1.30 1.74  
Year to date precipitation 47.03 46.56  
Sea Level Pressure  
Sea Level Pressure 30.41 in    
Wind  
Wind Speed 5 mph (North)    
Max Wind Speed 13 mph    
Max Gust Speed 20 mph    
Visibility 10 miles    
Events      
T = Trace of Precipitation, MM = Missing Value Source: NWS Daily Summary

Daily Weather History Graph

Daily Weather History Graph

Search for Another Location

Airport or City:

Trip Planner

Search our weather history database for the weather conditions in past years. The results will help you decide how hot, cold, wet, or windy it might be!

Date:

Astronomy

Dec. 12, 2013 Rise Set
Actual Time 7:26 AM EST 5:34 PM EST
Civil Twilight 7:00 AM EST 6:01 PM EST
Nautical Twilight 6:29 AM EST 6:31 PM EST
Astronomical Twilight 6:00 AM EST 7:01 PM EST
Moon 2:29 PM EST (12/12) 3:01 AM EST (12/12)
Length of Visible Light 11h 01m
Length of Day
10h 07m
Waxing Gibbous, 80% of the Moon is Illuminated
Dec 12
Waxing Gibbous
Dec 17
Full
Dec 25
Last Quarter
Jan 1
New
Jan 7
First Quarter

Hourly Weather History & Observations

Time (EST) Temp. Windchill Dew Point Humidity Pressure Visibility Wind Dir Wind Speed Gust Speed Precip Events Conditions
12:53 AM 42.1 °F 40.2 °F 39.9 °F 92% 30.36 in 10.0 mi NNW 3.5 mph - N/A   Clear
1:53 AM 42.1 °F 40.2 °F 39.9 °F 92% 30.36 in 10.0 mi North 3.5 mph - N/A   Clear
2:53 AM 39.9 °F - 39.0 °F 97% 30.35 in 10.0 mi Calm Calm - N/A   Clear
3:53 AM 42.1 °F 38.4 °F 37.9 °F 85% 30.37 in 10.0 mi North 5.8 mph - N/A   Clear
4:53 AM 43.0 °F 38.8 °F 34.0 °F 71% 30.38 in 10.0 mi NNW 6.9 mph - N/A   Clear
5:53 AM 42.1 °F 39.2 °F 30.9 °F 65% 30.40 in 10.0 mi North 4.6 mph - N/A   Clear
6:53 AM 39.0 °F - 30.9 °F 73% 30.42 in 10.0 mi Calm Calm - N/A   Clear
7:53 AM 37.0 °F 33.3 °F 32.0 °F 82% 30.45 in 10.0 mi North 4.6 mph - N/A   Clear
8:53 AM 42.1 °F 37.1 °F 30.0 °F 62% 30.47 in 10.0 mi North 8.1 mph - N/A   Clear
9:53 AM 46.9 °F - 28.9 °F 50% 30.48 in 10.0 mi North 6.9 mph - N/A   Clear
10:34 AM 50.0 °F - 26.6 °F 40% 30.48 in 10.0 mi NNW 9.2 mph - N/A   Clear
10:53 AM 50.0 °F - 25.0 °F 38% 30.48 in 10.0 mi North 8.1 mph - N/A   Clear
11:53 AM 54.0 °F - 24.1 °F 31% 30.45 in 10.0 mi NNE 8.1 mph - N/A   Clear
12:53 PM 55.9 °F - 23.0 °F 28% 30.41 in 10.0 mi North 8.1 mph - N/A   Clear
1:53 PM 57.9 °F - 19.9 °F 23% 30.38 in 10.0 mi NW 12.7 mph - N/A   Clear
2:53 PM 59.0 °F - 19.0 °F 21% 30.37 in 10.0 mi NNW 9.2 mph - N/A   Clear
3:53 PM 60.1 °F - 19.0 °F 20% 30.37 in 10.0 mi North 4.6 mph - N/A   Clear
4:53 PM 57.0 °F - 19.0 °F 23% 30.38 in 10.0 mi North 8.1 mph - N/A   Clear
5:53 PM 50.0 °F - 25.0 °F 38% 30.39 in 10.0 mi Calm Calm - N/A   Clear
6:17 PM 46.4 °F 45.2 °F 26.6 °F 46% 30.39 in 10.0 mi NNW 3.5 mph - N/A   Clear
6:53 PM 43.0 °F 41.3 °F 30.0 °F 60% 30.40 in 10.0 mi North 3.5 mph - N/A   Clear
7:53 PM 41.0 °F 38.0 °F 30.0 °F 65% 30.42 in 10.0 mi NNW 4.6 mph - N/A   Clear
8:53 PM 37.9 °F - 30.0 °F 73% 30.40 in 10.0 mi Calm Calm - N/A   Clear
9:53 PM 35.1 °F - 28.9 °F 78% 30.40 in 10.0 mi Calm Calm - N/A   Clear
10:53 PM 35.1 °F - 28.9 °F 78% 30.41 in 10.0 mi Calm Calm - N/A   Clear
11:53 PM 33.1 °F - 28.9 °F 85% 30.40 in 10.0 mi Calm Calm - N/A   Clear